TimeEDT,TemperatureF,Dew PointF,Humidity,Sea Level PressureIn,VisibilityMPH,Wind Direction,Wind SpeedMPH,Gust SpeedMPH,PrecipitationIn,Events,Conditions,WindDirDegrees,DateUTC
12:02 AM,64.4,62.6,94,30.05,3.0,Calm,Calm,-,N/A,,Overcast,0,2012-10-05 04:02:00
12:10 AM,64.4,62.6,94,30.05,1.8,Calm,Calm,-,N/A,,Overcast,0,2012-10-05 04:10:00
12:22 AM,64.4,62.6,94,30.05,0.5,Calm,Calm,-,N/A,Fog,Fog,0,2012-10-05 04:22:00
12:30 AM,64.4,62.6,94,30.05,0.2,Calm,Calm,-,N/A,Fog,Fog,0,2012-10-05 04:30:00
12:53 AM,63.0,62.1,97,30.04,0.2,Calm,Calm,-,N/A,Fog,Fog,0,2012-10-05 04:53:00
1:08 AM,62.6,62.6,100,30.05,0.5,Calm,Calm,-,N/A,Fog,Fog,0,2012-10-05 05:08:00
1:26 AM,62.6,62.6,100,30.05,0.8,Calm,Calm,-,N/A,,Mist,0,2012-10-05 05:26:00
1:33 AM,62.6,62.6,100,30.05,1.5,Calm,Calm,-,N/A,,Overcast,0,2012-10-05 05:33:00
1:53 AM,63.0,62.1,97,30.04,1.0,Calm,Calm,-,N/A,,Overcast,0,2012-10-05 05:53:00
2:28 AM,62.6,62.6,100,30.04,0.8,Calm,Calm,-,N/A,,Overcast,0,2012-10-05 06:28:00
2:36 AM,62.6,62.6,100,30.05,1.8,Calm,Calm,-,N/A,,Overcast,0,2012-10-05 06:36:00
2:43 AM,62.6,62.6,100,30.04,2.5,Calm,Calm,-,N/A,,Overcast,0,2012-10-05 06:43:00
2:50 AM,64.4,62.6,94,30.04,3.0,Calm,Calm,-,N/A,,Overcast,0,2012-10-05 06:50:00
2:53 AM,64.0,62.1,93,30.03,4.0,Calm,Calm,-,N/A,,Overcast,0,2012-10-05 06:53:00
3:03 AM,64.4,62.6,94,30.04,1.8,Calm,Calm,-,N/A,,Overcast,0,2012-10-05 07:03:00
3:13 AM,62.6,62.6,100,30.04,0.5,Calm,Calm,-,N/A,Fog,Fog,0,2012-10-05 07:13:00
3:21 AM,62.6,62.6,100,30.04,0.2,South,3.5,-,N/A,Fog,Fog,180,2012-10-05 07:21:00
3:53 AM,62.1,61.0,96,30.03,0.5,Calm,Calm,-,N/A,Fog,Fog,0,2012-10-05 07:53:00
4:01 AM,62.6,60.8,94,30.04,2.0,WSW,3.5,-,N/A,,Overcast,250,2012-10-05 08:01:00
4:46 AM,60.8,60.8,100,30.04,5.0,SW,3.5,-,N/A,,Overcast,230,2012-10-05 08:46:00
4:53 AM,61.0,60.1,97,30.03,5.0,Calm,Calm,-,N/A,,Overcast,0,2012-10-05 08:53:00
5:31 AM,60.8,59.0,94,30.05,7.0,SSW,4.6,-,N/A,,Overcast,210,2012-10-05 09:31:00
5:53 AM,60.1,59.0,96,30.04,8.0,SW,3.5,-,N/A,,Overcast,230,2012-10-05 09:53:00
6:53 AM,60.1,57.9,93,30.04,9.0,Calm,Calm,-,N/A,,Overcast,0,2012-10-05 10:53:00
7:01 AM,60.8,57.2,88,30.05,5.0,SW,3.5,-,N/A,,Overcast,220,2012-10-05 11:01:00
7:53 AM,60.1,57.9,93,30.05,8.0,Calm,Calm,-,N/A,,Overcast,0,2012-10-05 11:53:00
8:51 AM,60.8,57.2,88,30.06,10.0,Calm,Calm,-,N/A,,Scattered Clouds,0,2012-10-05 12:51:00
8:53 AM,62.1,57.0,84,30.05,10.0,Calm,Calm,-,N/A,,Scattered Clouds,0,2012-10-05 12:53:00
9:53 AM,64.0,57.9,80,30.05,10.0,WSW,3.5,-,N/A,,Partly Cloudy,250,2012-10-05 13:53:00
10:53 AM,66.0,59.0,78,30.05,10.0,SW,3.5,-,N/A,,Partly Cloudy,220,2012-10-05 14:53:00
11:53 AM,70.0,59.0,68,30.02,10.0,SE,4.6,-,N/A,,Clear,130,2012-10-05 15:53:00
1:53 PM,75.0,57.0,53,29.96,10.0,ESE,4.6,-,N/A,,Clear,120,2012-10-05 17:53:00
2:53 PM,77.0,57.0,50,29.94,10.0,WSW,9.2,-,N/A,,Clear,240,2012-10-05 18:53:00
3:53 PM,77.0,57.0,50,29.92,10.0,South,5.8,-,N/A,,Clear,190,2012-10-05 19:53:00
4:53 PM,75.9,57.0,52,29.93,10.0,Variable,5.8,-,N/A,,Clear,0,2012-10-05 20:53:00
5:53 PM,73.9,60.1,62,29.92,10.0,SSE,3.5,-,N/A,,Clear,160,2012-10-05 21:53:00
6:53 PM,66.9,61.0,81,29.92,10.0,Calm,Calm,-,N/A,,Clear,0,2012-10-05 22:53:00
7:53 PM,64.0,60.1,87,29.92,10.0,Calm,Calm,-,N/A,,Clear,0,2012-10-05 23:53:00
8:53 PM,62.1,59.0,90,29.92,8.0,Calm,Calm,-,N/A,,Clear,0,2012-10-06 00:53:00
9:53 PM,62.1,59.0,90,29.92,6.0,Calm,Calm,-,N/A,,Clear,0,2012-10-06 01:53:00
10:53 PM,60.1,57.9,93,29.91,4.0,Calm,Calm,-,N/A,,Clear,0,2012-10-06 02:53:00
11:53 PM,59.0,57.0,93,29.90,5.0,Calm,Calm,-,N/A,,Clear,0,2012-10-06 03:53:00